Flag for U.S.A. Weather past 2 weeks in Santa Cruz, California, U.S.A.

Now
61 °F

Fog.


Feels Like: 61 °F
Forecast: 59 / 79 °F
Wind: No wind

Location: Watsonville Municipal Airport

Current Time: Aug 2, 2014 at 2:41:51 AM

Latest Report: Aug 2, 2014 at 1:53 AM


Visibility: 6 mi

Pressure: 29.91 "Hg

Humidity: 87%

Dew point: 57 °F

Location of Santa CruzLocation

Historic Weather in Santa Cruz — Graph

°F

Santa Cruz temperature yesterday

Maximum temperature yesterday: 73 °F (at 1:53 PM)
Minimum temperature yesterday: 60 °F (at 4:53 AM)
Average temperature yesterday: 65 °F

Past Weeks' High & Low Weather Summary

 TemperatureHumidityPressure
High84 °F (Jul 24, 2:53 PM)93% (Jul 26, 5:53 AM)30.14 "Hg (Jul 26, 5:53 AM)
Low57 °F (Jul 26, 2:53 AM)38% (Jul 24, 2:53 PM)29.84 "Hg (Jul 25, 3:53 AM)
Average67 °F72%29.99 "Hg
* Reported Jul 18 1:00 AM — Aug 2 1:53 AM, Santa Cruz, Weather by CustomWeather, © 2014

Note: Actual official high and low records may vary slightly from our data, if they occured in-between our weather recording intervals... More about our weather records

Advertising

Santa Cruz weather history for previous 24 hours

 ConditionsComfort  
Time TempWeatherWind HumidityBarometerVisibility
1:53 AM
Aug 2
61 °FFog.No wind87%29.91 "Hg6 mi
12:53 AM62 °FLow clouds.3 mph83%29.92 "Hg7 mi
11:53 PM
Aug 1
62 °FLow clouds.3 mph83%29.92 "Hg9 mi
10:53 PM62 °FLow clouds.No wind83%29.92 "Hg9 mi
9:53 PM61 °FLow clouds.No wind87%29.93 "Hg9 mi
8:53 PM62 °FLow clouds.7 mph83%29.92 "Hg10 mi
8:03 PM62 °FLow clouds.3 mph83%29.92 "Hg8 mi
7:53 PM62 °FLow clouds.5 mph83%29.92 "Hg9 mi
6:53 PM63 °FLow clouds.3 mph81%29.90 "Hg10 mi
5:53 PM66 °FPassing clouds.10 mph73%29.90 "Hg10 mi
4:53 PM68 °FSunny.9 mph68%29.91 "Hg10 mi
3:53 PM71 °FSunny.10 mph63%29.92 "Hg10 mi
2:53 PM71 °FSunny.9 mph61%29.92 "Hg10 mi
1:53 PM73 °FSunny.10 mph59%29.93 "Hg10 mi
12:53 PM71 °FSunny.8 mph63%29.93 "Hg10 mi
11:53 AM72 °FSunny.8 mph64%29.95 "Hg10 mi
11:00 AM70 °FScattered clouds.7 mph66%29.95 "Hg10 mi
10:53 AM70 °FPartly sunny.6 mph66%29.95 "Hg10 mi
9:53 AM65 °FLow clouds.3 mph78%29.95 "Hg10 mi
8:53 AM61 °FLow clouds.No wind87%29.95 "Hg8 mi
7:53 AM60 °FFog.No wind86%29.94 "Hg3 mi
6:53 AM60 °FFog.3 mph90%29.92 "Hg1 mi
5:53 AM60 °FFog.No wind90%29.92 "Hg1 mi
4:53 AM60 °FFog.No wind90%29.90 "Hg1 mi
3:53 AM61 °FFog.No wind87%29.90 "Hg4 mi
2:53 AM61 °FFog.No wind90%29.91 "Hg6 mi
Weather by CustomWeather, © 2014

See weather overviewHow to use our weather pages